Newberry, MI

8:24 AM EST on December 16, 2017 (GMT -0500)
Luce County

Weather History for KERY - July, 2013

Change the Weather History Date:

Sunday, July 28, 2013

  Actual Average Record
Temperature  
Mean Temperature 54 °F -  
Max Temperature 60 °F 75 °F 93 °F (1957)
Min Temperature 48 °F 52 °F 40 °F (1967)
Degree Days  
Heating Degree Days 11    
Growing Degree Days 4 (Base 50)    
Moisture  
Dew Point 51 °F    
Average Humidity 91    
Maximum Humidity 100    
Minimum Humidity 82    
Precipitation  
Precipitation 0.00 in - - ()
Sea Level Pressure  
Sea Level Pressure 29.79 in    
Wind  
Wind Speed 7 mph (WSW)    
Max Wind Speed 13 mph    
Max Gust Speed 16 mph    
Visibility 10 miles    
Events Rain    
Averages and records for this station are not official NWS values.
T = Trace of Precipitation, MM = Missing Value Source: NWS Daily Summary

Daily Weather History Graph

Daily Weather History Graph

Search for Another Location

Airport or City:

Trip Planner

Search our weather history database for the weather conditions in past years. The results will help you decide how hot, cold, wet, or windy it might be!

Date:

Astronomy

Jul. 28, 2013 Rise Set
Actual Time 6:18 AM EDT 9:17 PM EDT
Civil Twilight 5:43 AM EDT 9:52 PM EDT
Nautical Twilight 4:58 AM EDT 10:37 PM EDT
Astronomical Twilight 4:03 AM EDT 11:31 PM EDT
Moon No Moon Rise 1:27 PM EDT (7/28)
Length of Visible Light 16h 08m
Length of Day
14h 58m
Waning Gibbous, 61% of the Moon is Illuminated
Jul 28
Waning Gibbous
Jul 29
Last Quarter
Aug 6
New
Aug 14
First Quarter
Aug 20
Full

Hourly Weather History & Observations

Time (EDT) Temp. Dew Point Humidity Pressure Visibility Wind Dir Wind Speed Gust Speed Precip Events Conditions
12:14 AM 50.0 °F 46.4 °F 87% 29.80 in 10.0 mi West 6.9 mph - N/A   Scattered Clouds
12:35 AM 50.0 °F 48.2 °F 94% 29.80 in 10.0 mi WNW 6.9 mph - N/A   Overcast
12:54 AM 50.0 °F 48.2 °F 94% 29.79 in 10.0 mi WNW 6.9 mph - N/A   Overcast
1:15 AM 50.0 °F 48.2 °F 94% 29.79 in 10.0 mi WNW 5.8 mph - N/A   Overcast
1:35 AM 50.0 °F 48.2 °F 94% 29.78 in 10.0 mi West 6.9 mph - N/A   Overcast
1:54 AM 50.0 °F 48.2 °F 94% 29.77 in 10.0 mi West 8.1 mph - N/A   Overcast
2:15 AM 50.0 °F 48.2 °F 94% 29.77 in 10.0 mi West 4.6 mph - N/A   Overcast
2:34 AM 50.0 °F 48.2 °F 94% 29.77 in 10.0 mi NW 6.9 mph - N/A   Overcast
2:54 AM 50.0 °F 46.4 °F 87% 29.76 in 10.0 mi NW 5.8 mph - N/A   Overcast
3:15 AM 50.0 °F 46.4 °F 87% 29.77 in 10.0 mi NW 3.5 mph - N/A   Overcast
3:34 AM 50.0 °F 46.4 °F 87% 29.77 in 10.0 mi West 4.6 mph - N/A Rain Rain
3:55 AM 48.2 °F 48.2 °F 100% 29.77 in 10.0 mi West 4.6 mph - N/A Rain Rain
4:14 AM 48.2 °F 48.2 °F 100% 29.76 in 10.0 mi WSW 4.6 mph - N/A Rain Light Rain
4:34 AM 48.2 °F 46.4 °F 93% 29.75 in 10.0 mi WSW 6.9 mph - N/A Rain Rain
4:55 AM 48.2 °F 46.4 °F 93% 29.74 in 10.0 mi WSW 5.8 mph - N/A Rain Light Rain
5:14 AM 48.2 °F 46.4 °F 93% 29.74 in 10.0 mi West 8.1 mph - N/A   Light Drizzle
5:35 AM 48.2 °F 46.4 °F 93% 29.73 in 10.0 mi West 8.1 mph - N/A   Overcast
5:55 AM 48.2 °F 46.4 °F 93% 29.73 in 10.0 mi West 9.2 mph - N/A   Overcast
6:14 AM 48.2 °F 46.4 °F 93% 29.74 in 10.0 mi West 9.2 mph - N/A   Overcast
6:35 AM 48.2 °F 46.4 °F 93% 29.74 in 10.0 mi WSW 6.9 mph - N/A   Overcast
6:55 AM 48.2 °F 46.4 °F 93% 29.74 in 10.0 mi West 8.1 mph - N/A   Overcast
7:14 AM 48.2 °F 46.4 °F 93% 29.74 in 10.0 mi WSW 9.2 mph - N/A   Overcast
7:35 AM 50.0 °F 48.2 °F 94% 29.73 in 10.0 mi WSW 9.2 mph - N/A   Overcast
7:55 AM 50.0 °F 48.2 °F 94% 29.73 in 10.0 mi WSW 6.9 mph - N/A   Overcast
8:14 AM 51.8 °F 48.2 °F 88% 29.74 in 10.0 mi SW 8.1 mph - N/A   Overcast
8:35 AM 51.8 °F 50.0 °F 94% 29.73 in 10.0 mi WSW 11.5 mph - N/A   Overcast
8:54 AM 53.6 °F 51.8 °F 94% 29.73 in 10.0 mi WSW 9.2 mph - N/A   Overcast
9:14 AM 53.6 °F 51.8 °F 94% 29.73 in 10.0 mi WSW 11.5 mph 16.1 mph N/A   Overcast
9:35 AM 55.4 °F 51.8 °F 88% 29.73 in 10.0 mi WSW 10.4 mph - N/A   Overcast
9:54 AM 55.4 °F 51.8 °F 88% 29.73 in 10.0 mi SW 11.5 mph - N/A   Overcast
10:15 AM 55.4 °F 51.8 °F 88% 29.73 in 10.0 mi SW 9.2 mph - N/A   Overcast
10:35 AM 55.4 °F 51.8 °F 88% 29.74 in 10.0 mi SW 8.1 mph - N/A   Overcast
10:54 AM 55.4 °F 51.8 °F 88% 29.74 in 10.0 mi SW 9.2 mph - N/A   Overcast
11:15 AM 55.4 °F 51.8 °F 88% 29.74 in 10.0 mi SW 9.2 mph - N/A   Overcast
11:35 AM 55.4 °F 53.6 °F 94% 29.75 in 10.0 mi SSW 9.2 mph - N/A   Overcast
11:54 AM 55.4 °F 53.6 °F 94% 29.76 in 5.0 mi SSW 8.1 mph - N/A   Overcast
12:15 PM 55.4 °F 51.8 °F 88% 29.76 in 10.0 mi SW 8.1 mph - N/A   Overcast
12:35 PM 57.2 °F 53.6 °F 88% 29.76 in 10.0 mi SSW 6.9 mph - N/A   Overcast
12:54 PM 57.2 °F 53.6 °F 88% 29.76 in 10.0 mi South 9.2 mph - N/A   Overcast
1:15 PM 57.2 °F 53.6 °F 88% 29.77 in 10.0 mi South 9.2 mph - N/A   Overcast
1:34 PM 59.0 °F 55.4 °F 88% 29.77 in 10.0 mi South 9.2 mph - N/A   Overcast
1:54 PM 57.2 °F 53.6 °F 88% 29.77 in 10.0 mi SSW 9.2 mph - N/A   Overcast
2:14 PM 57.2 °F 53.6 °F 88% 29.77 in 5.0 mi SSW 6.9 mph - N/A   Overcast
2:34 PM 59.0 °F 55.4 °F 88% 29.78 in 10.0 mi SSW 11.5 mph - N/A   Overcast
2:55 PM 59.0 °F 53.6 °F 82% 29.78 in 10.0 mi SSW 8.1 mph - N/A   Overcast
3:14 PM 57.2 °F 55.4 °F 94% 29.79 in 7.0 mi SSW 11.5 mph 16.1 mph N/A   Overcast
3:34 PM 57.2 °F 53.6 °F 88% 29.79 in 10.0 mi South 9.2 mph - N/A   Overcast
3:55 PM 57.2 °F 53.6 °F 88% 29.80 in 10.0 mi SW 9.2 mph - N/A   Overcast
4:14 PM 60.8 °F 55.4 °F 82% 29.80 in 10.0 mi SSW 12.7 mph 16.1 mph N/A   Overcast
4:34 PM 59.0 °F 53.6 °F 82% 29.80 in 10.0 mi South 8.1 mph - N/A   Overcast
4:55 PM 59.0 °F 55.4 °F 88% 29.81 in 10.0 mi SSW 6.9 mph - N/A   Overcast
5:14 PM 59.0 °F 55.4 °F 88% 29.81 in 10.0 mi South 8.1 mph - N/A   Overcast
5:35 PM 60.8 °F 55.4 °F 82% 29.82 in 10.0 mi SW 8.1 mph - N/A   Overcast
5:55 PM 60.8 °F 55.4 °F 82% 29.83 in 10.0 mi West 6.9 mph - N/A   Overcast
6:14 PM 59.0 °F 55.4 °F 88% 29.83 in 10.0 mi WSW 6.9 mph - N/A   Mostly Cloudy
6:35 PM 59.0 °F 55.4 °F 88% 29.84 in 10.0 mi West 3.5 mph - N/A   Overcast
6:55 PM 60.8 °F 55.4 °F 82% 29.84 in 10.0 mi West 3.5 mph - N/A   Overcast
7:14 PM 59.0 °F 53.6 °F 82% 29.84 in 10.0 mi Calm Calm - N/A   Overcast
7:35 PM 57.2 °F 55.4 °F 94% 29.85 in 10.0 mi SW 8.1 mph - N/A   Overcast
7:54 PM 57.2 °F 53.6 °F 88% 29.85 in 10.0 mi WSW 5.8 mph - N/A   Overcast
8:14 PM 55.4 °F 53.6 °F 94% 29.86 in 10.0 mi WNW 5.8 mph - N/A   Overcast
8:35 PM 55.4 °F 53.6 °F 94% 29.87 in 10.0 mi West 3.5 mph - N/A   Overcast
8:54 PM 55.4 °F 53.6 °F 94% 29.87 in 10.0 mi Calm Calm - N/A   Overcast
9:14 PM 55.4 °F 53.6 °F 94% 29.88 in 7.0 mi West 3.5 mph - N/A   Overcast
9:35 PM 55.4 °F 53.6 °F 94% 29.88 in 10.0 mi Calm Calm - N/A   Overcast
9:54 PM 55.4 °F 53.6 °F 94% 29.89 in 10.0 mi NNW 4.6 mph - N/A   Overcast
10:15 PM 55.4 °F 53.6 °F 94% 29.89 in 10.0 mi NNW 3.5 mph - N/A   Overcast
10:35 PM 53.6 °F 53.6 °F 100% 29.90 in 10.0 mi NNW 5.8 mph - N/A   Overcast
10:54 PM 53.6 °F 51.8 °F 94% 29.91 in 10.0 mi North 5.8 mph - N/A   Overcast
11:15 PM 53.6 °F 51.8 °F 94% 29.91 in 10.0 mi North 5.8 mph - N/A   Overcast
11:34 PM 53.6 °F 51.8 °F 94% 29.92 in 10.0 mi North 5.8 mph - N/A   Overcast
11:55 PM 53.6 °F 51.8 °F 94% 29.92 in 10.0 mi North 5.8 mph - N/A   Overcast